| time (UTC) | temp C | wind direction | speed KPH | gust KPH | rain 1hr cm | rain 24hr cm | rain mn cm | humidity % | barometer mb |
| 20260508065005 | 8 | 313 | 6.4 | 9.7 | 0.00 | 0.00 | 0.00 | 96 | 1015.2 |
| 20260508065003 | 8 | 307 | 6.4 | 11.3 | 0.00 | 0.03 | 0.00 | 98 | 1017.2 |
| 20260508064505 | 8 | 321 | 6.4 | 9.7 | 0.00 | 0.00 | 0.00 | 96 | 1015.2 |
| 20260508064005 | 8 | 299 | 4.8 | 8.0 | 0.00 | 0.00 | 0.00 | 97 | 1015.2 |
| 20260508064003 | 8 | 295 | 4.8 | 8.0 | 0.00 | 0.03 | 0.00 | 99 | 1017.1 |
| 20260508063505 | 8 | 294 | 6.4 | 8.0 | 0.00 | 0.00 | 0.00 | 97 | 1015.0 |
| 20260508063503 | 8 | 319 | 4.8 | 6.4 | 0.00 | 0.03 | 0.00 | 99 | 1016.9 |
| 20260508063006 | 8 | 324 | 6.4 | 9.7 | 0.00 | 0.03 | 0.00 | 97 | 1015.1 |
| 20260508063003 | 8 | 336 | 6.4 | 9.7 | 0.00 | 0.03 | 0.00 | 99 | 1016.8 |
| 20260508062505 | 8 | 344 | 6.4 | 11.3 | 0.00 | 0.03 | 0.00 | 98 | 1014.9 |
| 20260508062503 | 8 | 335 | 6.4 | 11.3 | 0.00 | 0.05 | 0.00 | 99 | 1017.1 |
| 20260508062005 | 8 | 336 | 6.4 | 11.3 | 0.00 | 0.05 | 0.00 | 98 | 1015.0 |
| 20260508062003 | 8 | 328 | 6.4 | 11.3 | 0.00 | 0.10 | 0.00 | 99 | 1016.9 |
| 20260508061504 | 8 | 323 | 4.8 | 8.0 | 0.00 | 0.10 | 0.00 | 99 | 1016.9 |
| 20260508061006 | 8 | 345 | 6.4 | 8.0 | 0.00 | 0.05 | 0.00 | 98 | 1015.0 |
| 20260508061003 | 8 | 335 | 4.8 | 6.4 | 0.00 | 0.10 | 0.00 | 99 | 1017.1 |
| 20260508060505 | 8 | 344 | 4.8 | 6.4 | 0.00 | 0.10 | 0.00 | 98 | 1014.9 |
| 20260508060006 | 8 | 291 | 4.8 | 8.0 | 0.00 | 0.10 | 0.00 | 98 | 1014.8 |
| 20260508055505 | 8 | 317 | 4.8 | 8.0 | 0.00 | 0.10 | 0.00 | 98 | 1014.9 |
| 20260508055503 | 8 | 341 | 4.8 | 6.4 | 0.00 | 0.13 | 0.00 | 99 | 1016.6 |
| 20260508055005 | 8 | 322 | 4.8 | 6.4 | 0.00 | 0.10 | 0.00 | 98 | 1014.9 |
| 20260508055003 | 8 | 337 | 4.8 | 6.4 | 0.00 | 0.13 | 0.00 | 99 | 1016.7 |
| 20260508054506 | 8 | 305 | 3.2 | 6.4 | 0.00 | 0.10 | 0.00 | 98 | 1014.8 |
| 20260508054503 | 8 | 337 | 4.8 | 6.4 | 0.00 | 0.13 | 0.00 | 99 | 1016.7 |
| 20260508054004 | 8 | 335 | 4.8 | 9.7 | 0.00 | 0.13 | 0.00 | 99 | 1016.7 |
| 20260508053505 | 8 | 273 | 4.8 | 9.7 | 0.00 | 0.10 | 0.00 | 98 | 1014.8 |
| 20260508053503 | 7 | 322 | 4.8 | 9.7 | 0.00 | 0.13 | 0.00 | 99 | 1016.6 |
| 20260508053005 | 8 | 302 | 4.8 | 6.4 | 0.00 | 0.10 | 0.00 | 98 | 1014.6 |
| 20260508052505 | 8 | 314 | 3.2 | 6.4 | 0.00 | 0.13 | 0.00 | 98 | 1014.8 |
| 20260508052503 | 7 | 297 | 3.2 | 6.4 | 0.00 | 0.15 | 0.00 | 99 | 1016.7 |
| 20260508052005 | 8 | 304 | 3.2 | 6.4 | 0.00 | 0.15 | 0.00 | 98 | 1014.8 |
| 20260508052003 | 7 | 313 | 3.2 | 4.8 | 0.00 | 0.20 | 0.00 | 99 | 1016.6 |
| 20260508051505 | 7 | 307 | 3.2 | 6.4 | 0.00 | 0.20 | 0.00 | 97 | 1014.8 |
| 20260508051503 | 7 | 320 | 3.2 | 4.8 | 0.00 | 0.28 | 0.00 | 97 | 1016.8 |
| 20260508051005 | 7 | 299 | 4.8 | 6.4 | 0.00 | 0.20 | 0.00 | 97 | 1014.8 |
| 20260508050505 | 7 | 285 | 6.4 | 8.0 | 0.00 | 0.20 | 0.00 | 97 | 1014.8 |
| 20260508050503 | 7 | 300 | 4.8 | 8.0 | 0.00 | 0.28 | 0.00 | 97 | 1016.7 |
| 20260508050010 | 7 | 290 | 6.4 | 8.0 | 0.00 | 0.28 | 0.00 | 97 | 1016.5 |
| 20260508050005 | 7 | 266 | 6.4 | 9.7 | 0.00 | 0.20 | 0.00 | 97 | 1014.8 |
| 20260508045005 | 7 | 294 | 6.4 | 8.0 | 0.00 | 0.20 | 0.00 | 96 | 1014.7 |
| 20260508045003 | 7 | 296 | 6.4 | 8.0 | 0.00 | 0.28 | 0.00 | 97 | 1016.7 |
| 20260508044505 | 7 | 295 | 8.0 | 9.7 | 0.00 | 0.20 | 0.00 | 96 | 1014.6 |
| 20260508044003 | 7 | 283 | 6.4 | 9.7 | 0.00 | 0.28 | 0.00 | 97 | 1016.6 |
| 20260508043505 | 8 | 295 | 6.4 | 8.0 | 0.00 | 0.20 | 0.00 | 96 | 1014.6 |
| 20260508043503 | 7 | 297 | 6.4 | 8.0 | 0.00 | 0.28 | 0.00 | 97 | 1016.5 |
| 20260508043005 | 8 | 315 | 4.8 | 6.4 | 0.00 | 0.20 | 0.00 | 96 | 1014.7 |
| 20260508043003 | 7 | 303 | 4.8 | 6.4 | 0.00 | 0.28 | 0.00 | 97 | 1016.7 |
| 20260508042505 | 7 | 317 | 4.8 | 8.0 | 0.00 | 0.20 | 0.00 | 96 | 1014.6 |
| 20260508042503 | 7 | 290 | 4.8 | 8.0 | 0.00 | 0.28 | 0.00 | 97 | 1016.5 |
| 20260508042005 | 8 | 305 | 4.8 | 8.0 | 0.00 | 0.20 | 0.00 | 96 | 1014.6 |
| 20260508042003 | 7 | 283 | 4.8 | 8.0 | 0.00 | 0.28 | 0.00 | 97 | 1016.5 |
| 20260508041504 | 7 | 285 | 3.2 | 6.4 | 0.00 | 0.28 | 0.00 | 97 | 1016.5 |
| 20260508041005 | 8 | 348 | 6.4 | 6.4 | 0.00 | 0.20 | 0.00 | 95 | 1014.5 |
| 20260508040505 | 8 | 346 | 4.8 | 6.4 | 0.00 | 0.20 | 0.00 | 95 | 1014.5 |
| 20260508040503 | 7 | 330 | 4.8 | 6.4 | 0.00 | 0.28 | 0.00 | 97 | 1016.3 |
| 20260508040005 | 8 | 319 | 4.8 | 6.4 | 0.00 | 0.20 | 0.00 | 95 | 1014.4 |
| 20260508035505 | 8 | 328 | 4.8 | 6.4 | 0.00 | 0.20 | 0.00 | 95 | 1014.2 |
| 20260508035503 | 7 | 342 | 4.8 | 6.4 | 0.00 | 0.28 | 0.00 | 97 | 1016.1 |
| 20260508034505 | 8 | 308 | 4.8 | 8.0 | 0.00 | 0.20 | 0.00 | 95 | 1014.1 |
| 20260508034003 | 7 | 342 | 4.8 | 8.0 | 0.00 | 0.30 | 0.00 | 96 | 1016.0 |
| 20260508033505 | 8 | 295 | 4.8 | 8.0 | 0.00 | 0.20 | 0.00 | 94 | 1014.1 |
| 20260508033503 | 7 | 323 | 4.8 | 8.0 | 0.00 | 0.30 | 0.00 | 96 | 1016.1 |
| 20260508033005 | 8 | 317 | 4.8 | 8.0 | 0.00 | 0.20 | 0.00 | 94 | 1014.2 |
| 20260508033003 | 7 | 327 | 4.8 | 8.0 | 0.00 | 0.30 | 0.00 | 95 | 1015.8 |
| 20260508032503 | 7 | 330 | 3.2 | 8.0 | 0.00 | 0.30 | 0.00 | 95 | 1016.1 |
| 20260508032005 | 8 | 339 | 4.8 | 6.4 | 0.00 | 0.20 | 0.00 | 94 | 1014.1 |
| 20260508032003 | 7 | 341 | 3.2 | 6.4 | 0.00 | 0.30 | 0.00 | 95 | 1016.0 |
| 20260508031505 | 8 | 337 | 4.8 | 8.0 | 0.00 | 0.20 | 0.00 | 94 | 1014.1 |
| 20260508031005 | 8 | 333 | 6.4 | 9.7 | 0.00 | 0.20 | 0.00 | 94 | 1014.1 |
| 20260508031003 | 7 | 345 | 4.8 | 9.7 | 0.00 | 0.30 | 0.00 | 95 | 1016.1 |
| 20260508030505 | 8 | 340 | 6.4 | 9.7 | 0.00 | 0.20 | 0.00 | 94 | 1014.0 |
| 20260508030503 | 7 | 343 | 4.8 | 9.7 | 0.00 | 0.30 | 0.00 | 95 | 1015.9 |
| 20260508030009 | 7 | 316 | 4.8 | 6.4 | 0.00 | 0.30 | 0.00 | 95 | 1015.8 |
| 20260508030005 | 8 | 344 | 6.4 | 8.0 | 0.00 | 0.20 | 0.00 | 94 | 1014.1 |
| 20260508025505 | 8 | 339 | 6.4 | 8.0 | 0.00 | 0.20 | 0.00 | 93 | 1013.9 |
| 20260508025503 | 7 | 307 | 6.4 | 6.4 | 0.00 | 0.30 | 0.00 | 95 | 1015.9 |
| 20260508025005 | 8 | 336 | 8.0 | 8.0 | 0.00 | 0.20 | 0.00 | 93 | 1013.9 |
| 20260508025003 | 7 | 307 | 6.4 | 8.0 | 0.00 | 0.30 | 0.00 | 95 | 1016.0 |
| 20260508024503 | 8 | 332 | 6.4 | 9.7 | 0.00 | 0.30 | 0.00 | 95 | 1015.9 |
| 20260508024005 | 8 | 316 | 6.4 | 11.3 | 0.00 | 0.20 | 0.00 | 93 | 1013.9 |
| 20260508023505 | 8 | 323 | 6.4 | 8.0 | 0.00 | 0.20 | 0.00 | 93 | 1014.0 |
| 20260508023503 | 8 | 341 | 6.4 | 8.0 | 0.00 | 0.30 | 0.00 | 94 | 1015.8 |
| 20260508023003 | 8 | 339 | 4.8 | 8.0 | 0.00 | 0.30 | 0.00 | 94 | 1015.8 |
| 20260508022506 | 8 | 329 | 6.4 | 8.0 | 0.00 | 0.20 | 0.00 | 93 | 1014.0 |
| 20260508022504 | 8 | 342 | 4.8 | 6.4 | 0.00 | 0.30 | 0.00 | 94 | 1015.9 |
| 20260508022005 | 8 | 319 | 4.8 | 8.0 | 0.00 | 0.20 | 0.00 | 93 | 1013.9 |
| 20260508022003 | 8 | 346 | 4.8 | 8.0 | 0.00 | 0.30 | 0.00 | 94 | 1015.9 |
| 20260508021505 | 8 | 313 | 4.8 | 6.4 | 0.00 | 0.20 | 0.00 | 93 | 1013.9 |
| 20260508021005 | 8 | 288 | 4.8 | 6.4 | 0.00 | 0.20 | 0.00 | 93 | 1013.9 |
| 20260508020503 | 8 | 331 | 6.4 | 11.3 | 0.00 | 0.30 | 0.00 | 94 | 1015.8 |
| 20260508020009 | 8 | 334 | 6.4 | 11.3 | 0.00 | 0.30 | 0.00 | 94 | 1015.9 |
| 20260508020006 | 8 | 343 | 8.0 | 12.9 | 0.00 | 0.20 | 0.00 | 93 | 1014.0 |
| 20260508015505 | 8 | 326 | 8.0 | 12.9 | 0.00 | 0.20 | 0.00 | 93 | 1014.0 |
| 20260508015005 | 8 | 329 | 8.0 | 12.9 | 0.00 | 0.20 | 0.00 | 93 | 1013.9 |
| 20260508015003 | 8 | 7 | 8.0 | 12.9 | 0.00 | 0.30 | 0.00 | 94 | 1015.8 |
| 20260508014503 | 8 | 1 | 6.4 | 9.7 | 0.00 | 0.30 | 0.00 | 94 | 1015.7 |
| 20260508014003 | 8 | 341 | 8.0 | 12.9 | 0.00 | 0.30 | 0.00 | 95 | 1015.7 |
| 20260508013505 | 8 | 346 | 9.7 | 12.9 | 0.00 | 0.20 | 0.00 | 93 | 1013.7 |
| 20260508013503 | 8 | 335 | 9.7 | 12.9 | 0.00 | 0.30 | 0.00 | 95 | 1015.5 |
| 20260508013004 | 8 | 350 | 8.0 | 12.9 | 0.00 | 0.30 | 0.00 | 95 | 1015.6 |
| 20260508012505 | 8 | 338 | 8.0 | 12.9 | 0.00 | 0.20 | 0.00 | 93 | 1013.9 |
| 20260508012503 | 8 | 23 | 8.0 | 12.9 | 0.00 | 0.30 | 0.00 | 95 | 1015.9 |
| 20260508012005 | 8 | 299 | 8.0 | 14.5 | 0.00 | 0.20 | 0.00 | 94 | 1013.9 |
| 20260508011505 | 8 | 311 | 9.7 | 14.5 | 0.00 | 0.20 | 0.00 | 94 | 1013.9 |
| 20260508011503 | 8 | 330 | 9.7 | 14.5 | 0.00 | 0.30 | 0.00 | 95 | 1015.9 |
| 20260508011005 | 8 | 332 | 8.0 | 12.9 | 0.00 | 0.20 | 0.00 | 93 | 1013.9 |
| 20260508010505 | 9 | 316 | 8.0 | 9.7 | 0.00 | 0.20 | 0.00 | 94 | 1014.0 |
| 20260508010010 | 8 | 310 | 6.4 | 8.0 | 0.00 | 0.30 | 0.00 | 96 | 1015.9 |
| 20260508010005 | 9 | 317 | 6.4 | 9.7 | 0.00 | 0.20 | 0.00 | 94 | 1014.0 |
| 20260508005504 | 9 | 339 | 6.4 | 9.7 | 0.00 | 0.20 | 0.00 | 94 | 1014.0 |
| 20260508005005 | 9 | 341 | 4.8 | 9.7 | 0.00 | 0.20 | 0.00 | 94 | 1014.1 |
| 20260508004503 | 8 | 355 | 4.8 | 8.0 | 0.00 | 0.30 | 0.00 | 95 | 1015.7 |
| 20260508004006 | 9 | 323 | 4.8 | 8.0 | 0.00 | 0.20 | 0.00 | 94 | 1014.0 |
| 20260508003505 | 9 | 324 | 4.8 | 8.0 | 0.00 | 0.20 | 0.00 | 94 | 1014.0 |
| 20260508003503 | 8 | 330 | 4.8 | 6.4 | 0.00 | 0.30 | 0.00 | 95 | 1016.0 |
| 20260508003005 | 9 | 312 | 4.8 | 6.4 | 0.00 | 0.20 | 0.00 | 94 | 1013.9 |
| 20260508002505 | 9 | 310 | 4.8 | 6.4 | 0.00 | 0.20 | 0.00 | 94 | 1013.9 |
| 20260508002503 | 8 | 333 | 4.8 | 6.4 | 0.00 | 0.30 | 0.00 | 95 | 1015.6 |
| 20260508002005 | 9 | 340 | 6.4 | 9.7 | 0.00 | 0.20 | 0.00 | 94 | 1013.7 |
| 20260508001505 | 9 | 351 | 6.4 | 9.7 | 0.00 | 0.20 | 0.00 | 94 | 1013.7 |
| 20260508001503 | 9 | 341 | 6.4 | 8.0 | 0.00 | 0.30 | 0.00 | 95 | 1015.8 |
| 20260508001005 | 9 | 2 | 6.4 | 6.4 | 0.00 | 0.20 | 0.00 | 94 | 1013.9 |
| 20260508000505 | 9 | 358 | 6.4 | 6.4 | 0.00 | 0.20 | 0.00 | 94 | 1013.7 |
| 20260508000503 | 9 | 316 | 6.4 | 6.4 | 0.00 | 0.30 | 0.00 | 95 | 1015.7 |
| 20260508000010 | 9 | 329 | 6.4 | 6.4 | 0.00 | 0.30 | 0.00 | 95 | 1015.5 |
| 20260507235505 | 9 | 315 | 4.8 | 6.4 | 0.00 | 0.20 | 0.00 | 94 | 1013.8 |
| 20260507235005 | 9 | 310 | 3.2 | 6.4 | 0.00 | 0.20 | 0.00 | 94 | 1013.7 |
| 20260507235003 | 9 | 339 | 3.2 | 6.4 | 0.00 | 0.30 | 0.00 | 95 | 1015.5 |
| 20260507234505 | 9 | 327 | 4.8 | 12.9 | 0.00 | 0.20 | 0.00 | 94 | 1013.8 |
| 20260507234503 | 9 | 21 | 4.8 | 11.3 | 0.00 | 0.30 | 0.00 | 95 | 1015.6 |
| 20260507234005 | 9 | 339 | 4.8 | 12.9 | 0.00 | 0.20 | 0.00 | 94 | 1013.8 |
| 20260507233505 | 9 | 344 | 4.8 | 12.9 | 0.00 | 0.20 | 0.00 | 94 | 1013.7 |
| 20260507233005 | 9 | 333 | 4.8 | 6.4 | 0.00 | 0.20 | 0.00 | 94 | 1013.7 |
| 20260507233003 | 9 | 332 | 4.8 | 6.4 | 0.00 | 0.30 | 0.00 | 95 | 1015.7 |
| 20260507232505 | 10 | 330 | 4.8 | 6.4 | 0.00 | 0.20 | 0.00 | 94 | 1013.6 |
| 20260507232503 | 9 | 337 | 4.8 | 6.4 | 0.00 | 0.30 | 0.00 | 96 | 1015.6 |
| 20260507232005 | 10 | 327 | 6.4 | 11.3 | 0.00 | 0.23 | 0.00 | 94 | 1013.7 |
| 20260507231505 | 10 | 326 | 8.0 | 11.3 | 0.00 | 0.28 | 0.00 | 95 | 1013.6 |
| 20260507231503 | 9 | 348 | 6.4 | 11.3 | 0.00 | 0.36 | 0.00 | 96 | 1015.4 |
| 20260507231005 | 10 | 322 | 6.4 | 9.7 | 0.00 | 0.28 | 0.00 | 95 | 1013.7 |
| 20260507231003 | 9 | 359 | 4.8 | 9.7 | 0.00 | 0.36 | 0.00 | 96 | 1015.5 |
| 20260507230505 | 10 | 319 | 4.8 | 6.4 | 0.00 | 0.28 | 0.00 | 95 | 1013.5 |
| 20260507230009 | 9 | 345 | 6.4 | 8.0 | 0.00 | 0.36 | 0.00 | 96 | 1015.6 |
| 20260507230005 | 10 | 330 | 4.8 | 8.0 | 0.00 | 0.28 | 0.00 | 95 | 1013.7 |
| 20260507225506 | 10 | 341 | 4.8 | 8.0 | 0.00 | 0.28 | 0.00 | 95 | 1013.6 |
| 20260507225504 | 9 | 351 | 4.8 | 8.0 | 0.00 | 0.36 | 0.00 | 96 | 1015.4 |
| 20260507225005 | 10 | 343 | 6.4 | 8.0 | 0.00 | 0.28 | 0.00 | 95 | 1013.6 |
| 20260507225003 | 9 | 350 | 4.8 | 6.4 | 0.00 | 0.36 | 0.00 | 96 | 1015.3 |
| 20260507224505 | 10 | 333 | 4.8 | 8.0 | 0.00 | 0.28 | 0.00 | 95 | 1013.5 |
| 20260507224503 | 9 | 4 | 4.8 | 8.0 | 0.00 | 0.36 | 0.00 | 96 | 1015.3 |
| 20260507224005 | 10 | 330 | 6.4 | 9.7 | 0.00 | 0.28 | 0.00 | 95 | 1013.6 |
| 20260507224003 | 9 | 356 | 4.8 | 9.7 | 0.00 | 0.36 | 0.00 | 96 | 1015.1 |
| 20260507223505 | 10 | 342 | 6.4 | 9.7 | 0.00 | 0.28 | 0.00 | 95 | 1013.6 |
| 20260507223005 | 10 | 342 | 4.8 | 8.0 | 0.00 | 0.28 | 0.00 | 94 | 1013.5 |
| 20260507223003 | 9 | 346 | 4.8 | 8.0 | 0.00 | 0.36 | 0.00 | 96 | 1015.4 |
| 20260507222505 | 10 | 320 | 4.8 | 9.7 | 0.00 | 0.28 | 0.00 | 94 | 1013.5 |
| 20260507222503 | 9 | 350 | 4.8 | 8.0 | 0.00 | 0.36 | 0.00 | 96 | 1015.5 |
| 20260507222005 | 10 | 317 | 4.8 | 9.7 | 0.00 | 0.28 | 0.00 | 94 | 1013.4 |
| 20260507221505 | 10 | 333 | 3.2 | 8.0 | 0.00 | 0.28 | 0.00 | 94 | 1013.5 |
| 20260507221503 | 10 | 349 | 4.8 | 8.0 | 0.00 | 0.38 | 0.00 | 96 | 1015.2 |
| 20260507220505 | 10 | 319 | 3.2 | 9.7 | 0.00 | 0.30 | 0.00 | 94 | 1013.5 |
| 20260507220005 | 10 | 338 | 4.8 | 11.3 | 0.00 | 0.30 | 0.00 | 94 | 1013.4 |
| 20260507215505 | 10 | 354 | 4.8 | 11.3 | 0.00 | 0.30 | 0.30 | 94 | 1013.3 |
| 20260507215503 | 10 | 2 | 4.8 | 11.3 | 0.00 | 0.38 | 0.38 | 97 | 1015.1 |
| 20260507215005 | 10 | 1 | 4.8 | 11.3 | 0.00 | 0.30 | 0.30 | 94 | 1013.3 |
| 20260507215003 | 10 | 14 | 4.8 | 11.3 | 0.00 | 0.38 | 0.38 | 97 | 1015.0 |
| 20260507214505 | 10 | 352 | 4.8 | 8.0 | 0.00 | 0.30 | 0.30 | 94 | 1013.3 |
| 20260507214005 | 10 | 345 | 6.4 | 8.0 | 0.00 | 0.30 | 0.30 | 94 | 1013.3 |
| 20260507213505 | 10 | 344 | 6.4 | 8.0 | 0.00 | 0.30 | 0.30 | 94 | 1013.3 |
| 20260507213503 | 10 | 23 | 4.8 | 8.0 | 0.00 | 0.38 | 0.38 | 96 | 1015.0 |
| 20260507213004 | 10 | 349 | 8.0 | 12.9 | 0.00 | 0.33 | 0.30 | 94 | 1013.2 |
| 20260507212505 | 10 | 352 | 8.0 | 12.9 | 0.00 | 0.33 | 0.30 | 94 | 1013.2 |
| 20260507212003 | 10 | 14 | 6.4 | 9.7 | 0.00 | 0.43 | 0.38 | 96 | 1015.0 |
| 20260507211505 | 10 | 351 | 6.4 | 12.9 | 0.00 | 0.33 | 0.30 | 94 | 1013.1 |
| 20260507211503 | 10 | 17 | 6.4 | 11.3 | 0.00 | 0.46 | 0.38 | 96 | 1014.9 |
| 20260507211005 | 10 | 343 | 8.0 | 12.9 | 0.00 | 0.33 | 0.30 | 94 | 1013.1 |
| 20260507211003 | 10 | 20 | 6.4 | 11.3 | 0.00 | 0.46 | 0.38 | 96 | 1015.1 |
| 20260507210505 | 10 | 321 | 6.4 | 9.7 | 0.00 | 0.36 | 0.30 | 94 | 1013.3 |
| 20260507210503 | 10 | 32 | 6.4 | 11.3 | 0.00 | 0.46 | 0.38 | 96 | 1014.8 |
| 20260507210009 | 10 | 23 | 4.8 | 8.0 | 0.00 | 0.56 | 0.38 | 96 | 1014.9 |
| 20260507210005 | 10 | 321 | 6.4 | 9.7 | 0.00 | 0.48 | 0.30 | 95 | 1013.3 |
| 20260507205503 | 10 | 331 | 4.8 | 9.7 | 0.00 | 0.64 | 0.38 | 96 | 1015.1 |
| 20260507205005 | 10 | 346 | 6.4 | 11.3 | 0.00 | 0.81 | 0.30 | 95 | 1013.1 |
| 20260507205003 | 10 | 349 | 4.8 | 9.7 | 0.00 | 0.97 | 0.38 | 96 | 1014.9 |
| 20260507204505 | 10 | 348 | 4.8 | 6.4 | 0.00 | 0.81 | 0.30 | 95 | 1013.3 |
| 20260507204003 | 10 | 335 | 4.8 | 6.4 | 0.00 | 0.97 | 0.38 | 96 | 1015.0 |
| 20260507203505 | 10 | 349 | 6.4 | 12.9 | 0.00 | 0.81 | 0.30 | 94 | 1013.2 |
| 20260507203005 | 10 | 349 | 6.4 | 12.9 | 0.00 | 0.81 | 0.30 | 94 | 1013.0 |
| 20260507203003 | 10 | 351 | 6.4 | 11.3 | 0.00 | 0.97 | 0.38 | 96 | 1015.0 |
| 20260507202505 | 10 | 345 | 4.8 | 9.7 | 0.00 | 0.81 | 0.30 | 94 | 1013.3 |
| 20260507202503 | 10 | 348 | 4.8 | 9.7 | 0.00 | 0.97 | 0.38 | 95 | 1014.9 |
| 20260507202005 | 10 | 325 | 4.8 | 11.3 | 0.00 | 0.81 | 0.30 | 94 | 1013.0 |
| 20260507202003 | 10 | 327 | 4.8 | 9.7 | 0.00 | 0.97 | 0.38 | 95 | 1014.9 |
| 20260507201504 | 10 | 333 | 6.4 | 11.3 | 0.00 | 0.81 | 0.30 | 94 | 1013.1 |
| 20260507201005 | 10 | 355 | 8.0 | 9.7 | 0.00 | 0.81 | 0.30 | 94 | 1012.8 |
| 20260507201003 | 10 | 6 | 4.8 | 8.0 | 0.00 | 0.97 | 0.38 | 95 | 1014.8 |
| 20260507200505 | 10 | 1 | 6.4 | 11.3 | 0.00 | 0.81 | 0.30 | 94 | 1012.9 |
| 20260507200503 | 10 | 344 | 6.4 | 11.3 | 0.00 | 0.97 | 0.38 | 95 | 1014.7 |
| 20260507200009 | 10 | 328 | 6.4 | 11.3 | 0.00 | 0.97 | 0.38 | 95 | 1014.5 |
| 20260507200005 | 10 | 336 | 8.0 | 11.3 | 0.00 | 0.81 | 0.30 | 94 | 1012.8 |
| 20260507195505 | 10 | 324 | 6.4 | 11.3 | 0.00 | 0.81 | 0.30 | 94 | 1012.9 |
| 20260507195503 | 10 | 345 | 4.8 | 11.3 | 0.00 | 0.97 | 0.38 | 95 | 1014.6 |
| 20260507195003 | 10 | 13 | 4.8 | 8.0 | 0.00 | 0.97 | 0.38 | 95 | 1014.8 |
| 20260507194505 | 10 | 312 | 4.8 | 8.0 | 0.00 | 0.81 | 0.30 | 94 | 1012.9 |
| 20260507194503 | 10 | 356 | 4.8 | 8.0 | 0.00 | 0.97 | 0.38 | 94 | 1014.6 |
| 20260507194005 | 10 | 296 | 8.0 | 12.9 | 0.00 | 0.81 | 0.30 | 94 | 1012.7 |
| 20260507193505 | 10 | 318 | 8.0 | 12.9 | 0.00 | 0.81 | 0.30 | 93 | 1012.8 |
| 20260507193503 | 10 | 357 | 8.0 | 12.9 | 0.00 | 0.97 | 0.38 | 94 | 1014.3 |
| 20260507193005 | 10 | 345 | 8.0 | 12.9 | 0.00 | 0.81 | 0.30 | 93 | 1012.6 |
| 20260507192505 | 10 | 342 | 8.0 | 11.3 | 0.00 | 0.81 | 0.30 | 93 | 1012.5 |
| 20260507192503 | 10 | 13 | 8.0 | 11.3 | 0.00 | 0.97 | 0.38 | 94 | 1014.2 |
| 20260507192005 | 10 | 335 | 8.0 | 11.3 | 0.00 | 0.81 | 0.30 | 93 | 1012.5 |
| 20260507191503 | 10 | 340 | 6.4 | 9.7 | 0.00 | 0.97 | 0.38 | 94 | 1014.2 |
| 20260507191005 | 10 | 339 | 6.4 | 9.7 | 0.00 | 0.81 | 0.30 | 93 | 1012.5 |
| 20260507191003 | 10 | 351 | 6.4 | 8.0 | 0.00 | 0.97 | 0.38 | 93 | 1014.2 |
| 20260507190505 | 10 | 331 | 6.4 | 9.7 | 0.00 | 0.81 | 0.30 | 93 | 1012.4 |
| 20260507190010 | 10 | 24 | 6.4 | 9.7 | 0.00 | 0.97 | 0.38 | 93 | 1014.1 |
| 20260507185505 | 11 | 318 | 8.0 | 9.7 | 0.00 | 0.81 | 0.30 | 92 | 1012.5 |
| 20260507185503 | 10 | 7 | 6.4 | 9.7 | 0.00 | 0.97 | 0.38 | 93 | 1014.2 |
| 20260507184505 | 11 | 325 | 8.0 | 12.9 | 0.00 | 0.81 | 0.30 | 91 | 1012.2 |
| 20260507184503 | 10 | 337 | 8.0 | 14.5 | 0.00 | 0.97 | 0.38 | 93 | 1013.9 |
| 20260507184005 | 11 | 313 | 9.7 | 12.9 | 0.00 | 0.81 | 0.30 | 91 | 1012.1 |
| 20260507184003 | 11 | 334 | 9.7 | 14.5 | 0.00 | 0.97 | 0.38 | 93 | 1014.0 |
| 20260507183505 | 11 | 312 | 8.0 | 12.9 | 0.00 | 0.81 | 0.30 | 91 | 1012.0 |
| 20260507183005 | 11 | 334 | 8.0 | 12.9 | 0.00 | 0.81 | 0.30 | 91 | 1012.0 |
| 20260507183003 | 11 | 340 | 6.4 | 11.3 | 0.00 | 0.97 | 0.38 | 91 | 1013.8 |
| 20260507182505 | 11 | 351 | 6.4 | 9.7 | 0.00 | 0.81 | 0.30 | 90 | 1011.9 |
| 20260507182503 | 11 | 357 | 6.4 | 8.0 | 0.00 | 0.97 | 0.38 | 91 | 1013.8 |
| 20260507182005 | 11 | 337 | 6.4 | 8.0 | 0.00 | 0.81 | 0.30 | 90 | 1011.8 |
| 20260507182003 | 11 | 7 | 4.8 | 9.7 | 0.00 | 0.97 | 0.38 | 91 | 1013.6 |
| 20260507181505 | 11 | 322 | 6.4 | 8.0 | 0.00 | 0.81 | 0.30 | 90 | 1011.8 |
| 20260507181003 | 11 | 357 | 6.4 | 9.7 | 0.00 | 0.97 | 0.38 | 91 | 1013.6 |
| 20260507180505 | 11 | 349 | 8.0 | 11.3 | 0.00 | 0.81 | 0.30 | 90 | 1011.6 |
| 20260507180009 | 11 | 353 | 6.4 | 9.7 | 0.00 | 0.97 | 0.38 | 91 | 1013.6 |
| 20260507180005 | 11 | 356 | 8.0 | 11.3 | 0.00 | 0.81 | 0.30 | 90 | 1011.7 |
| 20260507175504 | 11 | 331 | 6.4 | 12.9 | 0.00 | 0.97 | 0.38 | 91 | 1013.7 |
| 20260507175005 | 11 | 332 | 8.0 | 11.3 | 0.00 | 0.81 | 0.30 | 89 | 1011.4 |
| 20260507175003 | 11 | 355 | 8.0 | 12.9 | 0.00 | 0.97 | 0.38 | 90 | 1013.3 |
| 20260507174505 | 11 | 334 | 8.0 | 11.3 | 0.00 | 0.81 | 0.30 | 89 | 1011.5 |
| 20260507174503 | 11 | 11 | 8.0 | 9.7 | 0.00 | 0.97 | 0.38 | 90 | 1013.3 |
| 20260507174004 | 12 | 317 | 8.0 | 12.9 | 0.00 | 0.81 | 0.30 | 88 | 1011.4 |
| 20260507173505 | 12 | 288 | 9.7 | 12.9 | 0.00 | 0.81 | 0.30 | 88 | 1011.5 |
| 20260507173503 | 11 | 17 | 9.7 | 14.5 | 0.00 | 0.97 | 0.38 | 90 | 1013.3 |
| 20260507173005 | 12 | 320 | 8.0 | 11.3 | 0.00 | 0.81 | 0.30 | 88 | 1011.5 |
| 20260507172505 | 12 | 349 | 6.4 | 11.3 | 0.00 | 0.81 | 0.30 | 88 | 1011.4 |
| 20260507172503 | 11 | 12 | 6.4 | 11.3 | 0.00 | 0.97 | 0.38 | 89 | 1013.2 |
| 20260507172005 | 12 | 324 | 6.4 | 11.3 | 0.00 | 0.81 | 0.30 | 88 | 1011.3 |
| 20260507172003 | 12 | 30 | 6.4 | 9.7 | 0.00 | 0.97 | 0.38 | 88 | 1013.4 |
| 20260507171504 | 12 | 324 | 6.4 | 11.3 | 0.00 | 0.81 | 0.30 | 88 | 1011.2 |
| 20260507171003 | 12 | 16 | 8.0 | 9.7 | 0.00 | 0.97 | 0.38 | 88 | 1013.3 |
| 20260507170505 | 12 | 323 | 8.0 | 9.7 | 0.00 | 0.81 | 0.30 | 88 | 1011.0 |
| 20260507170503 | 12 | 15 | 6.4 | 9.7 | 0.00 | 0.97 | 0.38 | 88 | 1013.0 |
| 20260507170010 | 12 | 4 | 6.4 | 9.7 | 0.00 | 0.97 | 0.38 | 88 | 1013.1 |
| 20260507170006 | 12 | 314 | 6.4 | 9.7 | 0.00 | 0.81 | 0.30 | 87 | 1011.0 |
| 20260507165505 | 12 | 312 | 8.0 | 11.3 | 0.00 | 0.81 | 0.30 | 87 | 1011.2 |
| 20260507165503 | 12 | 11 | 6.4 | 9.7 | 0.00 | 0.97 | 0.38 | 88 | 1012.9 |
| 20260507165004 | 12 | 333 | 8.0 | 11.3 | 0.00 | 0.81 | 0.30 | 87 | 1011.0 |
| 20260507164505 | 12 | 346 | 6.4 | 11.3 | 0.00 | 0.81 | 0.30 | 87 | 1010.9 |
| 20260507164003 | 12 | 337 | 8.0 | 12.9 | 0.00 | 0.97 | 0.38 | 87 | 1012.9 |
| 20260507163504 | 12 | 338 | 9.7 | 14.5 | 0.00 | 0.81 | 0.30 | 87 | 1010.8 |
| 20260507163005 | 12 | 337 | 8.0 | 14.5 | 0.00 | 0.81 | 0.30 | 87 | 1010.6 |
| 20260507162003 | 12 | 357 | 9.7 | 14.5 | 0.00 | 0.97 | 0.38 | 87 | 1012.7 |
| 20260507161004 | 13 | 1 | 11.3 | 12.9 | 0.00 | 0.81 | 0.30 | 87 | 1010.7 |
| 20260507160505 | 13 | 357 | 12.9 | 12.9 | 0.00 | 0.81 | 0.30 | 87 | 1010.6 |
| 20260507160503 | 12 | 39 | 9.7 | 14.5 | 0.00 | 0.97 | 0.38 | 86 | 1012.5 |
| 20260507160005 | 13 | 341 | 11.3 | 12.9 | 0.00 | 0.81 | 0.30 | 87 | 1010.7 |
| 20260507155503 | 12 | 295 | 11.3 | 16.1 | 0.00 | 0.97 | 0.38 | 86 | 1012.4 |
| 20260507155005 | 13 | 331 | 11.3 | 16.1 | 0.00 | 0.81 | 0.30 | 87 | 1010.7 |
| 20260507154505 | 13 | 315 | 9.7 | 12.9 | 0.00 | 0.81 | 0.30 | 86 | 1010.7 |
| 20260507154503 | 13 | 10 | 9.7 | 16.1 | 0.00 | 0.97 | 0.38 | 86 | 1012.6 |
| 20260507154005 | 13 | 330 | 9.7 | 16.1 | 0.00 | 0.81 | 0.30 | 86 | 1010.6 |
| 20260507154003 | 13 | 354 | 9.7 | 17.7 | 0.00 | 0.97 | 0.38 | 85 | 1012.5 |
| 20260507153505 | 13 | 338 | 9.7 | 16.1 | 0.00 | 0.81 | 0.30 | 86 | 1010.7 |
| 20260507153503 | 13 | 358 | 9.7 | 17.7 | 0.00 | 0.97 | 0.38 | 85 | 1012.4 |
| 20260507153003 | 13 | 357 | 9.7 | 12.9 | 0.00 | 0.97 | 0.38 | 84 | 1012.4 |
| 20260507152505 | 14 | 324 | 8.0 | 12.9 | 0.00 | 0.81 | 0.30 | 85 | 1010.3 |
| 20260507152503 | 14 | 353 | 8.0 | 11.3 | 0.00 | 0.97 | 0.38 | 84 | 1012.0 |
| 20260507152005 | 14 | 322 | 8.0 | 12.9 | 0.00 | 0.81 | 0.30 | 85 | 1010.1 |
| 20260507152003 | 14 | 321 | 8.0 | 11.3 | 0.00 | 0.97 | 0.38 | 84 | 1012.0 |
| 20260507151505 | 14 | 330 | 9.7 | 12.9 | 0.00 | 0.81 | 0.30 | 85 | 1010.1 |
| 20260507151005 | 15 | 326 | 8.0 | 12.9 | 0.00 | 0.81 | 0.30 | 85 | 1010.3 |
| 20260507150009 | 15 | 349 | 9.7 | 12.9 | 0.03 | 0.97 | 0.38 | 83 | 1012.0 |
| 20260507150006 | 15 | 314 | 9.7 | 12.9 | 0.00 | 0.81 | 0.30 | 84 | 1010.1 |
| 20260507145504 | 15 | 318 | 9.7 | 12.9 | 0.00 | 0.81 | 0.30 | 84 | 1010.0 |
| 20260507145005 | 15 | 317 | 11.3 | 19.3 | 0.00 | 0.81 | 0.30 | 85 | 1010.3 |
| 20260507145003 | 15 | 357 | 11.3 | 19.3 | 0.03 | 0.97 | 0.38 | 83 | 1012.0 |
| 20260507144503 | 15 | 348 | 11.3 | 19.3 | 0.03 | 0.97 | 0.38 | 84 | 1011.8 |
| 20260507144006 | 15 | 304 | 9.7 | 14.5 | 0.00 | 0.81 | 0.30 | 86 | 1010.3 |
| 20260507143505 | 15 | 335 | 11.3 | 14.5 | 0.00 | 0.81 | 0.30 | 86 | 1010.4 |
| 20260507143503 | 15 | 321 | 9.7 | 12.9 | 0.03 | 0.97 | 0.38 | 85 | 1011.9 |
| 20260507143005 | 15 | 348 | 11.3 | 12.9 | 0.00 | 0.81 | 0.30 | 86 | 1010.2 |
| 20260507142505 | 15 | 332 | 9.7 | 14.5 | 0.00 | 0.81 | 0.30 | 86 | 1010.3 |
| 20260507142005 | 15 | 331 | 9.7 | 16.1 | 0.00 | 0.81 | 0.30 | 86 | 1010.3 |
| 20260507141505 | 15 | 325 | 9.7 | 16.1 | 0.00 | 0.81 | 0.30 | 86 | 1010.1 |
| 20260507141503 | 15 | 334 | 11.3 | 16.1 | 0.03 | 0.97 | 0.38 | 85 | 1011.6 |
| 20260507141007 | 15 | 321 | 8.0 | 14.5 | 0.00 | 0.81 | 0.30 | 86 | 1010.0 |
| 20260507140505 | 15 | 319 | 6.4 | 6.4 | 0.00 | 0.81 | 0.30 | 86 | 1010.1 |
| 20260507140010 | 15 | 332 | 6.4 | 8.0 | 0.00 | 0.94 | 0.36 | 85 | 1012.0 |
| 20260507140006 | 15 | 315 | 6.4 | 8.0 | 0.00 | 0.81 | 0.30 | 86 | 1010.2 |
| 20260507135505 | 15 | 294 | 6.4 | 12.9 | 0.00 | 0.81 | 0.30 | 87 | 1010.5 |
| 20260507135503 | 15 | 353 | 6.4 | 12.9 | 0.00 | 0.94 | 0.36 | 85 | 1012.0 |
| 20260507135005 | 15 | 296 | 6.4 | 12.9 | 0.00 | 0.81 | 0.30 | 87 | 1010.2 |
| 20260507135003 | 15 | 354 | 6.4 | 12.9 | 0.00 | 0.94 | 0.36 | 85 | 1011.9 |
| 20260507134504 | 15 | 326 | 6.4 | 8.0 | 0.00 | 0.94 | 0.36 | 85 | 1011.9 |
| 20260507134005 | 15 | 295 | 8.0 | 12.9 | 0.00 | 0.81 | 0.30 | 86 | 1010.3 |
| 20260507134003 | 15 | 291 | 8.0 | 12.9 | 0.00 | 0.94 | 0.36 | 84 | 1012.0 |
| 20260507133503 | 15 | 280 | 8.0 | 12.9 | 0.00 | 0.94 | 0.36 | 84 | 1012.0 |
| 20260507133003 | 15 | 275 | 6.4 | 9.7 | 0.00 | 0.94 | 0.36 | 84 | 1012.1 |
| 20260507132505 | 15 | 303 | 6.4 | 8.0 | 0.00 | 0.81 | 0.30 | 87 | 1010.2 |
| 20260507132003 | 16 | 305 | 6.4 | 9.7 | 0.00 | 0.94 | 0.36 | 84 | 1011.9 |
| 20260507131505 | 16 | 300 | 6.4 | 9.7 | 0.00 | 0.81 | 0.30 | 87 | 1010.2 |
| 20260507131005 | 16 | 307 | 4.8 | 6.4 | 0.00 | 0.81 | 0.30 | 86 | 1010.1 |
| 20260507131003 | 16 | 298 | 4.8 | 6.4 | 0.00 | 0.94 | 0.36 | 83 | 1011.7 |
| 20260507130505 | 16 | 304 | 6.4 | 8.0 | 0.00 | 0.81 | 0.30 | 87 | 1010.1 |
| 20260507130503 | 16 | 304 | 6.4 | 8.0 | 0.00 | 0.94 | 0.36 | 84 | 1011.6 |
| 20260507130005 | 16 | 313 | 6.4 | 8.0 | 0.00 | 0.81 | 0.30 | 87 | 1009.9 |
| 20260507125505 | 16 | 336 | 6.4 | 11.3 | 0.00 | 0.81 | 0.30 | 88 | 1009.9 |
| 20260507125503 | 15 | 11 | 6.4 | 12.9 | 0.00 | 0.94 | 0.36 | 84 | 1011.4 |
| 20260507125005 | 15 | 324 | 4.8 | 12.9 | 0.00 | 0.81 | 0.30 | 89 | 1009.9 |
| 20260507124504 | 15 | 22 | 4.8 | 12.9 | 0.00 | 0.94 | 0.36 | 84 | 1011.7 |
| 20260507124003 | 15 | 19 | 4.8 | 6.4 | 0.00 | 0.94 | 0.36 | 85 | 1011.6 |
| 20260507123504 | 15 | 36 | 3.2 | 6.4 | 0.00 | 0.94 | 0.36 | 86 | 1011.4 |
| 20260507123003 | 15 | 350 | 3.2 | 6.4 | 0.00 | 0.94 | 0.36 | 86 | 1011.6 |
| 20260507122504 | 15 | 322 | 1.6 | 8.0 | 0.00 | 0.81 | 0.30 | 93 | 1010.0 |
| 20260507122005 | 15 | 271 | 3.2 | 8.0 | 0.00 | 0.81 | 0.30 | 94 | 1010.0 |
| 20260507121505 | 15 | 215 | 4.8 | 8.0 | 0.00 | 0.81 | 0.30 | 95 | 1010.2 |
| 20260507121503 | 15 | 29 | 4.8 | 6.4 | 0.00 | 0.94 | 0.36 | 89 | 1011.7 |
| 20260507121005 | 15 | 158 | 4.8 | 4.8 | 0.00 | 0.81 | 0.30 | 95 | 1010.0 |
| 20260507121003 | 15 | 52 | 3.2 | 4.8 | 0.00 | 0.94 | 0.36 | 89 | 1011.7 |
| 20260507120503 | 15 | 77 | 3.2 | 8.0 | 0.00 | 0.94 | 0.36 | 90 | 1011.8 |
| 20260507115505 | 14 | 7 | 1.6 | 8.0 | 0.00 | 0.81 | 0.30 | 98 | 1009.9 |
| 20260507115004 | 14 | 337 | 1.6 | 6.4 | 0.00 | 0.81 | 0.30 | 99 | 1009.9 |
| 20260507114505 | 14 | 331 | 4.8 | 8.0 | 0.00 | 0.81 | 0.30 | 99 | 1010.1 |
| 20260507114503 | 14 | 64 | 4.8 | 6.4 | 0.00 | 0.94 | 0.36 | 94 | 1011.6 |
| 20260507114005 | 13 | 330 | 3.2 | 8.0 | 0.00 | 0.81 | 0.30 | 99 | 1009.9 |
| 20260507113505 | 13 | 351 | 1.6 | 6.4 | 0.00 | 0.81 | 0.30 | 99 | 1010.0 |
| 20260507113503 | 13 | 347 | 3.2 | 6.4 | 0.00 | 0.94 | 0.36 | 96 | 1011.8 |
| 20260507113005 | 13 | 348 | 1.6 | 4.8 | 0.00 | 0.81 | 0.30 | 99 | 1010.2 |
| 20260507112505 | 13 | 4 | 0.0 | 4.8 | 0.00 | 0.81 | 0.30 | 99 | 1010.3 |
| 20260507112503 | 13 | 338 | 4.8 | 6.4 | 0.00 | 0.94 | 0.36 | 97 | 1011.8 |
| 20260507112005 | 13 | 2 | 1.6 | 6.4 | 0.00 | 0.81 | 0.30 | 99 | 1010.3 |
| 20260507112003 | 13 | 6 | 4.8 | 6.4 | 0.00 | 0.94 | 0.36 | 99 | 1012.0 |
| 20260507111506 | 13 | 1 | 1.6 | 6.4 | 0.00 | 0.81 | 0.30 | 99 | 1010.2 |
| 20260507111503 | 13 | 44 | 3.2 | 6.4 | 0.00 | 0.94 | 0.36 | 99 | 1011.6 |
| 20260507111004 | 13 | 158 | 1.6 | 4.8 | 0.00 | 0.81 | 0.30 | 99 | 1010.1 |
| 20260507110505 | 13 | 158 | 1.6 | 4.8 | 0.00 | 0.81 | 0.30 | 99 | 1009.9 |
| 20260507110503 | 13 | 70 | 3.2 | 4.8 | 0.00 | 0.94 | 0.36 | 99 | 1011.7 |
| 20260507110005 | 12 | 0 | 0.0 | 0.0 | 0.00 | 0.81 | 0.30 | 99 | 1009.9 |
| 20260507105504 | 12 | 337 | 0.0 | 3.2 | 0.00 | 0.81 | 0.30 | 97 | 1010.0 |
| 20260507105005 | 12 | 331 | 3.2 | 8.0 | 0.00 | 0.81 | 0.30 | 97 | 1009.9 |
| 20260507104505 | 12 | 321 | 4.8 | 8.0 | 0.00 | 0.81 | 0.30 | 97 | 1009.9 |
| 20260507104004 | 12 | 302 | 4.8 | 8.0 | 0.00 | 0.81 | 0.30 | 97 | 1009.7 |
| 20260507103503 | 12 | 67 | 4.8 | 6.4 | 0.00 | 0.94 | 0.36 | 97 | 1011.5 |
| 20260507103005 | 12 | 292 | 1.6 | 8.0 | 0.00 | 0.81 | 0.30 | 97 | 1009.6 |
| 20260507102505 | 12 | 315 | 1.6 | 6.4 | 0.00 | 0.81 | 0.30 | 97 | 1009.7 |
| 20260507102503 | 12 | 67 | 3.2 | 6.4 | 0.00 | 0.94 | 0.36 | 97 | 1011.4 |
| 20260507102007 | 12 | 321 | 0.0 | 6.4 | 0.00 | 0.81 | 0.30 | 97 | 1009.6 |
| 20260507102004 | 12 | 347 | 3.2 | 6.4 | 0.00 | 0.94 | 0.36 | 97 | 1011.1 |
| 20260507101506 | 12 | 324 | 1.6 | 4.8 | 0.00 | 0.81 | 0.30 | 97 | 1009.7 |
| 20260507101503 | 12 | 309 | 3.2 | 6.4 | 0.00 | 0.94 | 0.36 | 97 | 1011.1 |
| 20260507101004 | 12 | 334 | 4.8 | 4.8 | 0.00 | 0.81 | 0.30 | 97 | 1009.5 |
| 20260507100504 | 12 | 1 | 3.2 | 4.8 | 0.00 | 0.94 | 0.36 | 97 | 1011.2 |
| 20260507100005 | 11 | 338 | 3.2 | 6.4 | 0.00 | 0.81 | 0.30 | 98 | 1009.3 |
| 20260507095505 | 11 | 330 | 3.2 | 6.4 | 0.00 | 0.81 | 0.30 | 98 | 1009.2 |
| 20260507095503 | 12 | 339 | 4.8 | 6.4 | 0.00 | 0.94 | 0.36 | 97 | 1010.8 |
| 20260507095003 | 12 | 357 | 4.8 | 6.4 | 0.00 | 0.94 | 0.36 | 97 | 1010.9 |
| 20260507094505 | 11 | 354 | 4.8 | 8.0 | 0.00 | 0.81 | 0.30 | 98 | 1009.2 |
| 20260507094503 | 12 | 352 | 6.4 | 6.4 | 0.00 | 0.94 | 0.36 | 97 | 1010.7 |
| 20260507094005 | 11 | 359 | 4.8 | 8.0 | 0.00 | 0.81 | 0.30 | 98 | 1009.1 |
| 20260507094003 | 12 | 345 | 6.4 | 6.4 | 0.00 | 0.94 | 0.36 | 97 | 1010.7 |
| 20260507093504 | 11 | 316 | 4.8 | 6.4 | 0.00 | 0.81 | 0.30 | 98 | 1009.1 |
| 20260507093003 | 11 | 350 | 4.8 | 6.4 | 0.00 | 0.94 | 0.36 | 98 | 1011.0 |
| 20260507092505 | 11 | 349 | 4.8 | 8.0 | 0.00 | 0.81 | 0.30 | 98 | 1009.1 |
| 20260507092004 | 11 | 347 | 6.4 | 8.0 | 0.00 | 0.81 | 0.30 | 98 | 1009.2 |
| 20260507091505 | 11 | 343 | 4.8 | 6.4 | 0.00 | 0.81 | 0.30 | 98 | 1009.2 |
| 20260507091003 | 11 | 348 | 4.8 | 6.4 | 0.00 | 0.94 | 0.36 | 98 | 1010.5 |
| 20260507090504 | 11 | 344 | 6.4 | 6.4 | 0.00 | 0.81 | 0.30 | 98 | 1008.9 |
| 20260507090009 | 11 | 344 | 4.8 | 6.4 | 0.00 | 0.94 | 0.36 | 98 | 1010.5 |
| 20260507090006 | 11 | 336 | 4.8 | 6.4 | 0.00 | 0.81 | 0.30 | 98 | 1008.8 |
| 20260507085505 | 11 | 356 | 4.8 | 6.4 | 0.00 | 0.81 | 0.30 | 98 | 1008.7 |
| 20260507085004 | 11 | 357 | 6.4 | 8.0 | 0.00 | 0.81 | 0.30 | 98 | 1008.6 |
| 20260507084505 | 11 | 351 | 6.4 | 9.7 | 0.00 | 0.81 | 0.30 | 98 | 1008.6 |
| 20260507084005 | 11 | 336 | 6.4 | 9.7 | 0.00 | 0.81 | 0.30 | 98 | 1008.5 |
| 20260507084003 | 11 | 351 | 6.4 | 9.7 | 0.00 | 0.94 | 0.36 | 98 | 1010.4 |
| 20260507083505 | 11 | 341 | 6.4 | 9.7 | 0.00 | 0.81 | 0.30 | 98 | 1008.4 |
| 20260507083004 | 11 | 25 | 6.4 | 8.0 | 0.00 | 0.94 | 0.36 | 98 | 1010.0 |
| 20260507082505 | 11 | 346 | 6.4 | 9.7 | 0.00 | 0.81 | 0.30 | 98 | 1008.3 |
| 20260507082003 | 11 | 343 | 6.4 | 11.3 | 0.00 | 0.94 | 0.36 | 98 | 1009.9 |
| 20260507081504 | 11 | 349 | 6.4 | 11.3 | 0.00 | 0.94 | 0.36 | 98 | 1009.5 |
| 20260507081005 | 11 | 1 | 8.0 | 9.7 | 0.00 | 0.81 | 0.30 | 98 | 1008.1 |
| 20260507080505 | 11 | 355 | 8.0 | 8.0 | 0.00 | 0.81 | 0.30 | 98 | 1008.0 |
| 20260507080009 | 11 | 342 | 6.4 | 9.7 | 0.00 | 0.94 | 0.36 | 98 | 1009.8 |
| 20260507080005 | 11 | 339 | 8.0 | 9.7 | 0.00 | 0.81 | 0.30 | 98 | 1008.1 |
| 20260507075505 | 11 | 326 | 6.4 | 9.7 | 0.00 | 0.81 | 0.30 | 98 | 1008.1 |
| 20260507075005 | 11 | 339 | 8.0 | 11.3 | 0.00 | 0.81 | 0.30 | 98 | 1008.0 |
| 20260507074504 | 11 | 342 | 8.0 | 11.3 | 0.00 | 0.81 | 0.30 | 98 | 1007.9 |
| 20260507074005 | 12 | 325 | 8.0 | 11.3 | 0.00 | 0.81 | 0.30 | 97 | 1007.9 |
| 20260507073505 | 12 | 302 | 6.4 | 8.0 | 0.00 | 0.81 | 0.30 | 97 | 1007.8 |
| 20260507073503 | 11 | 322 | 6.4 | 9.7 | 0.00 | 0.94 | 0.36 | 98 | 1009.6 |
| 20260507073004 | 11 | 294 | 6.4 | 9.7 | 0.00 | 0.94 | 0.36 | 98 | 1009.5 |
| 20260507072505 | 12 | 318 | 6.4 | 9.7 | 0.03 | 0.81 | 0.30 | 97 | 1007.7 |
| 20260507072005 | 12 | 313 | 8.0 | 12.9 | 0.05 | 0.81 | 0.30 | 97 | 1007.7 |
| 20260507071505 | 12 | 319 | 8.0 | 12.9 | 0.05 | 0.81 | 0.30 | 97 | 1007.6 |
| 20260507071005 | 12 | 325 | 8.0 | 12.9 | 0.05 | 0.81 | 0.30 | 97 | 1007.5 |
| 20260507070504 | 12 | 331 | 8.0 | 11.3 | 0.10 | 0.81 | 0.30 | 97 | 1007.5 |
| 20260507070009 | 12 | 328 | 6.4 | 11.3 | 0.10 | 0.81 | 0.30 | 97 | 1007.4 |
| 20260507065505 | 12 | 316 | 4.8 | 8.0 | 0.10 | 0.81 | 0.30 | 97 | 1007.3 |
| 20260507065503 | 12 | 316 | 4.8 | 6.4 | 0.10 | 0.94 | 0.36 | 97 | 1009.1 |